Weather History for KGEV - March, 2011

Change the Weather History Date:

Wednesday, March 9, 2011

  Actual Average Record
Temperature  
Mean Temperature 36 °F -  
Max Temperature 39 °F 54 °F 75 °F (1974)
Min Temperature 32 °F 29 °F 12 °F (1966)
Degree Days  
Heating Degree Days 30    
Moisture  
Dew Point 31 °F    
Average Humidity 88    
Maximum Humidity 100    
Minimum Humidity 48    
Precipitation  
Precipitation 0.99 in - - ()
Sea Level Pressure  
Sea Level Pressure 30.19 in    
Wind  
Wind Speed 4 mph (SSE)    
Max Wind Speed 9 mph    
Max Gust Speed 16 mph    
Visibility 3 miles    
Events Fog , Rain , Snow    
Averages and records for this station are not official NWS values.
T = Trace of Precipitation, MM = Missing Value Source: NWS Daily Summary

Daily Weather History Graph

Daily Weather History Graph

Search for Another Location

Airport or City:

Trip Planner

Search our weather history database for the weather conditions in past years. The results will help you decide how hot, cold, wet, or windy it might be!

Date:

Astronomy

Mar. 09, 2011 Rise Set
Actual Time 6:45 AM EST 6:27 PM EST
Civil Twilight 6:19 AM EST 6:53 PM EST
Nautical Twilight 5:50 AM EST 7:23 PM EST
Astronomical Twilight 5:20 AM EST 7:53 PM EST
Moon 8:46 AM EST (3/9) 11:12 PM EST (3/9)
Length of Visible Light 12h 33m
Length of Day
11h 41m
Waxing Crescent, 20% of the Moon is Illuminated
Mar 9
Waxing Crescent
Mar 12
First Quarter
Mar 19
Full
Mar 26
Last Quarter
Apr 3
New

Hourly Weather History & Observations

Time (EST) Temp. Windchill Dew Point Humidity Pressure Visibility Wind Dir Wind Speed Gust Speed Precip Events Conditions
12:02 AM 37.4 °F 33.8 °F 19.4 °F 48% 30.30 in 10.0 mi SSE 4.6 mph - N/A   Overcast
12:22 AM 37.4 °F - 19.4 °F 48% 30.30 in 10.0 mi Calm Calm - N/A   Overcast
12:42 AM 37.4 °F 32.1 °F 19.4 °F 48% 30.28 in 10.0 mi SSE 6.9 mph - N/A   Overcast
1:02 AM 37.4 °F 32.1 °F 21.2 °F 52% 30.27 in 10.0 mi SSE 6.9 mph - N/A   Overcast
1:22 AM 37.4 °F 34.9 °F 21.2 °F 52% 30.26 in 10.0 mi SSE 3.5 mph - N/A   Overcast
1:44 AM 37.4 °F 30.8 °F 21.2 °F 52% 30.27 in 10.0 mi SSE 9.2 mph 16.1 mph N/A   Overcast
2:02 AM 37.4 °F 32.8 °F 21.2 °F 52% 30.27 in 10.0 mi SSE 5.8 mph - N/A   Overcast
2:22 AM 35.6 °F 29.9 °F 21.2 °F 56% 30.27 in 10.0 mi SSE 6.9 mph - N/A   Overcast
2:42 AM 35.6 °F 31.7 °F 23.0 °F 60% 30.27 in 10.0 mi SE 4.6 mph - N/A   Overcast
3:02 AM 35.6 °F 32.8 °F 23.0 °F 60% 30.26 in 10.0 mi SSE 3.5 mph - N/A   Overcast
3:22 AM 35.6 °F 30.7 °F 23.0 °F 60% 30.25 in 10.0 mi SSE 5.8 mph - N/A   Overcast
3:42 AM 35.6 °F 29.9 °F 24.8 °F 65% 30.25 in 10.0 mi SSE 6.9 mph - N/A   Overcast
4:02 AM 35.6 °F 30.7 °F 26.6 °F 70% 30.23 in 10.0 mi SSE 5.8 mph - N/A   Overcast
4:24 AM 35.6 °F 31.7 °F 26.6 °F 70% 30.23 in 10.0 mi SSE 4.6 mph - N/A   Overcast
4:42 AM 33.8 °F 28.6 °F 28.4 °F 81% 30.23 in 7.0 mi SSE 5.8 mph - N/A   Light Drizzle
5:02 AM 33.8 °F 29.6 °F 30.2 °F 87% 30.23 in 7.0 mi SSE 4.6 mph - N/A   Overcast
5:22 AM 33.8 °F 30.8 °F 32.0 °F 93% 30.23 in 5.0 mi SSE 3.5 mph - N/A   Overcast
5:42 AM 33.8 °F 29.6 °F 32.0 °F 93% 30.22 in 2.0 mi South 4.6 mph - N/A   Overcast
6:02 AM 32.0 °F 28.7 °F 32.0 °F 100% 30.23 in 2.0 mi South 3.5 mph - 0.01 in   Overcast
6:22 AM 32.0 °F 28.7 °F 32.0 °F 100% 30.22 in 2.5 mi South 3.5 mph - 0.01 in   Overcast
6:42 AM 32.0 °F 28.7 °F 32.0 °F 100% 30.22 in 1.8 mi SSE 3.5 mph - 0.02 in   Overcast
7:02 AM 32.0 °F 28.7 °F 32.0 °F 100% 30.22 in 1.0 mi South 3.5 mph - 0.01 in   Overcast
7:22 AM 32.0 °F 28.7 °F 32.0 °F 100% 30.23 in 0.8 mi South 3.5 mph - 0.02 in   Overcast
7:42 AM 32.0 °F 28.7 °F 32.0 °F 100% 30.23 in 0.5 mi SSE 3.5 mph - 0.04 in   Overcast
8:22 AM 32.0 °F - 32.0 °F 100% 30.23 in 0.2 mi Calm Calm - 0.02 in   Overcast
8:42 AM 32.0 °F 28.7 °F 32.0 °F 100% 30.22 in 0.2 mi SSE 3.5 mph - 0.03 in   Overcast
9:02 AM 32.0 °F 28.7 °F 32.0 °F 100% 30.21 in 1.0 mi SSE 3.5 mph - 0.01 in   Overcast
9:22 AM 32.0 °F 26.4 °F 32.0 °F 100% 30.21 in 0.5 mi South 5.8 mph - 0.02 in   Overcast
9:42 AM 32.0 °F - 32.0 °F 100% 30.21 in 0.5 mi Calm Calm - 0.04 in   Overcast
10:02 AM 32.0 °F 27.5 °F 32.0 °F 100% 30.21 in 0.8 mi South 4.6 mph - 0.01 in   Overcast
10:24 AM 32.0 °F - 32.0 °F 100% 30.20 in 1.0 mi Calm Calm - 0.03 in   Overcast
11:02 AM 33.8 °F 30.8 °F 32.0 °F 93% 30.20 in 0.8 mi South 3.5 mph - 0.01 in Rain Rain
11:24 AM 33.8 °F - 32.0 °F 93% 30.19 in 0.5 mi Calm Calm - 0.05 in   Overcast
11:42 AM 33.8 °F 29.6 °F 33.8 °F 100% 30.19 in 0.5 mi South 4.6 mph - 0.08 in Rain Rain
12:02 PM 33.8 °F 30.8 °F 33.8 °F 100% 30.18 in 0.2 mi South 3.5 mph - 0.01 in Rain Light Rain
12:23 PM 33.8 °F 30.8 °F 33.8 °F 100% 30.17 in 0.5 mi South 3.5 mph - 0.05 in Rain Rain
12:42 PM 33.8 °F 29.6 °F 33.8 °F 100% 30.17 in 0.5 mi South 4.6 mph - 0.09 in Rain Light Rain
1:02 PM 35.6 °F 32.8 °F 33.8 °F 93% 30.16 in 1.0 mi South 3.5 mph - 0.02 in Rain Rain
1:22 PM 35.6 °F - 33.8 °F 93% 30.15 in 0.8 mi Calm Calm - 0.06 in   Overcast
1:42 PM 35.6 °F 32.8 °F 35.6 °F 100% 30.14 in 1.5 mi SSW 3.5 mph - 0.11 in Rain Light Rain
2:02 PM 35.6 °F 32.8 °F 35.6 °F 100% 30.15 in 1.5 mi SSW 3.5 mph - 0.03 in Rain Light Rain
2:22 PM 35.6 °F - 35.6 °F 100% 30.15 in 1.5 mi Calm Calm - 0.08 in Rain Light Rain
2:42 PM 35.6 °F - 35.6 °F 100% 30.14 in 2.5 mi Calm Calm - 0.12 in Rain Rain
3:02 PM 35.6 °F - 35.6 °F 100% 30.13 in 1.2 mi Calm Calm - 0.02 in Rain Light Rain
3:22 PM 35.6 °F - 35.6 °F 100% 30.14 in 1.5 mi Calm Calm - 0.14 in Snow Light Snow
3:42 PM 37.4 °F 34.9 °F 35.6 °F 93% 30.13 in 0.2 mi South 3.5 mph - 0.22 in   Overcast
4:02 PM 37.4 °F 33.8 °F 35.6 °F 93% 30.13 in 0.2 mi South 4.6 mph - 0.02 in   Overcast
4:22 PM 37.4 °F 34.9 °F 37.4 °F 100% 30.11 in 0.2 mi South 3.5 mph - 0.07 in Rain Rain
4:42 PM 37.4 °F - 37.4 °F 100% 30.10 in 0.5 mi Calm Calm - 0.11 in Rain Rain
5:02 PM 37.4 °F - 37.4 °F 100% 30.10 in 0.5 mi Calm Calm - 0.02 in Rain Rain
5:22 PM 39.2 °F 35.9 °F 37.4 °F 93% 30.09 in 0.2 mi SSE 4.6 mph - 0.07 in   Overcast
5:42 PM 39.2 °F 35.0 °F 39.2 °F 100% 30.07 in 0.5 mi South 5.8 mph - 0.10 in Rain Light Rain
6:02 PM 39.2 °F 35.0 °F 39.2 °F 100% 30.07 in 4.0 mi South 5.8 mph - N/A   Overcast
6:22 PM 39.2 °F 34.2 °F 39.2 °F 100% 30.08 in 0.2 mi SSE 6.9 mph - N/A Fog Fog
6:42 PM 39.2 °F 35.0 °F 39.2 °F 100% 30.04 in 0.2 mi SSE 5.8 mph - N/A Fog Fog
7:02 PM 39.2 °F - 39.2 °F 100% 30.04 in 0.2 mi Calm Calm - N/A   Unknown
7:22 PM 39.2 °F - 39.2 °F 100% 30.07 in 0.2 mi Calm Calm - N/A Fog Fog
7:42 PM 41.0 °F - 39.2 °F 93% 30.06 in 0.2 mi Calm Calm - N/A Fog Fog
8:02 PM 41.0 °F - 39.2 °F 93% 30.05 in 0.2 mi Calm Calm - N/A   Unknown
8:22 PM 41.0 °F 39.0 °F 39.2 °F 93% 30.05 in 0.2 mi SSW 3.5 mph - 0.01 in Rain Rain
8:42 PM 41.0 °F 39.0 °F 39.2 °F 93% 30.04 in 0.2 mi South 3.5 mph - 0.04 in Rain Heavy Rain
9:04 PM 41.0 °F - 39.2 °F 93% 30.03 in 0.5 mi Calm Calm - 0.02 in Rain Rain
9:22 PM 41.0 °F - 39.2 °F 93% 30.02 in 0.5 mi Calm Calm - 0.04 in   Heavy Drizzle
9:42 PM 41.0 °F 39.0 °F 39.2 °F 93% 30.03 in 2.5 mi WSW 3.5 mph - 0.08 in Rain Heavy Rain
10:02 PM 41.0 °F - 41.0 °F 100% 30.02 in 1.8 mi Calm Calm - 0.02 in Rain Rain
10:22 PM 41.0 °F - 41.0 °F 100% 30.02 in 0.8 mi Calm Calm - 0.12 in   Unknown
10:42 PM 41.0 °F - 41.0 °F 100% 30.00 in 0.5 mi Calm Calm - 0.16 in Rain Rain
11:02 PM 41.0 °F - 41.0 °F 100% 29.99 in 0.5 mi Calm Calm - 0.01 in Rain Rain
11:22 PM 41.0 °F 39.0 °F 41.0 °F 100% 29.99 in 2.5 mi SSW 3.5 mph - 0.03 in Rain Rain
11:42 PM 42.8 °F - 41.0 °F 93% 29.99 in 1.8 mi Calm Calm - 0.07 in Rain Rain